EW1232 Weather Reports


time (UTC)temp
C
wind
direction
speed
KPH
gust
KPH
rain 1hr
cm
rain 24hr
cm
rain mn
cm
humidity
%
barometer
mb
20260509002518 14 0 0.0 3.2 0.00 0.00 0.00 80 1010.1
20260509002019 14 178 0.0 3.2 0.00 0.00 0.00 80 1010.1
20260509001531 14 137 1.6 3.2 0.00 0.00 0.00 80 1010.0
20260509001019 15 0 0.0 1.6 0.00 0.00 0.00 79 1010.1
20260509000524 15 0 0.0 4.8 0.00 0.00 0.00 79 1010.1
20260509000035 15 0 0.0 6.4 0.00 0.00 0.00 79 1010.2
20260508235519 15 61 1.6 6.4 0.00 0.00 0.00 78 1010.2
20260508235018 15 153 0.0 6.4 0.00 0.00 0.00 76 1010.2
20260508234540 15 0 1.6 6.4 0.00 0.00 0.00 76 1010.2
20260508234018 15 0 0.0 1.6 0.00 0.00 0.00 75 1010.2
20260508233519 16 0 0.0 1.6 0.00 0.00 0.00 74 1010.2
20260508233040 16 162 0.0 1.6 0.00 0.00 0.00 73 1010.2
20260508232520 16 0 0.0 1.6 0.00 0.00 0.00 72 1010.2
20260508232019 16 0 0.0 3.2 0.00 0.00 0.00 71 1010.3
20260508231546 16 0 0.0 3.2 0.00 0.00 0.00 69 1010.2
20260508231022 16 0 0.0 3.2 0.00 0.00 0.00 69 1010.2
20260508230520 17 193 1.6 3.2 0.00 0.00 0.00 68 1010.1
20260508230035 17 169 0.0 3.2 0.00 0.00 0.00 66 1010.1
20260508225526 17 0 0.0 3.2 0.00 0.00 0.00 64 1010.1
20260508225019 17 0 0.0 3.2 0.00 0.00 0.00 64 1009.9
20260508224542 17 22 0.0 3.2 0.00 0.00 0.00 62 1009.8
20260508224019 17 126 0.0 1.6 0.00 0.00 0.00 59 1009.8
20260508223526 17 0 0.0 1.6 0.00 0.00 0.00 58 1009.8
20260508223036 17 0 0.0 1.6 0.00 0.00 0.00 57 1009.9
20260508222521 17 153 0.0 3.2 0.00 0.00 0.00 56 1009.9
20260508222018 17 0 0.0 3.2 0.00 0.00 0.00 53 1009.9
20260508221535 17 196 0.0 3.2 0.00 0.00 0.00 53 1009.8
20260508221019 18 221 0.0 4.8 0.00 0.00 0.00 53 1009.9
20260508220521 18 0 1.6 4.8 0.00 0.00 0.00 53 1009.8
20260508220037 18 266 0.0 4.8 0.00 0.00 0.00 52 1009.8
20260508215521 18 0 0.0 3.2 0.00 0.00 0.00 52 1009.8
20260508215020 18 248 0.0 6.4 0.00 0.00 0.00 51 1009.8
20260508214538 18 0 1.6 9.7 0.00 0.00 0.00 49 1009.8
20260508214019 18 178 3.2 9.7 0.00 0.00 0.00 48 1009.8
20260508213519 18 225 3.2 8.0 0.00 0.00 0.00 50 1009.8
20260508213036 18 162 0.0 6.4 0.00 0.00 0.00 49 1009.8
20260508212522 18 221 1.6 6.4 0.00 0.00 0.00 49 1010.0
20260508212018 18 282 0.0 6.4 0.00 0.00 0.00 48 1010.0
20260508211536 18 157 0.0 8.0 0.00 0.00 0.00 48 1009.9
20260508211023 18 266 1.6 11.3 0.00 0.00 0.00 47 1009.9
20260508210519 18 292 3.2 16.1 0.00 0.00 0.00 46 1010.0
20260508210036 18 211 3.2 17.7 0.00 0.00 0.00 47 1010.1
20260508205517 18 239 4.8 17.7 0.00 0.00 0.00 46 1010.2
20260508205020 18 248 6.4 16.1 0.00 0.00 0.00 45 1010.4
20260508204535 18 219 4.8 16.1 0.00 0.00 0.00 45 1010.4
20260508204019 18 198 4.8 19.3 0.00 0.00 0.00 46 1010.5
20260508203519 18 246 6.4 19.3 0.00 0.00 0.00 45 1010.6
20260508203043 18 223 4.8 20.9 0.00 0.00 0.00 46 1010.7
20260508202519 18 0 3.2 25.7 0.00 0.00 0.00 46 1010.8
20260508202019 18 214 6.4 25.7 0.00 0.00 0.00 45 1010.9
20260508201537 18 292 6.4 20.9 0.00 0.00 0.00 46 1010.9
20260508201019 18 209 6.4 17.7 0.00 0.00 0.00 46 1010.9
20260508200519 18 226 4.8 16.1 0.00 0.00 0.00 44 1010.9
20260508200038 18 260 3.2 17.7 0.00 0.00 0.00 45 1010.9
20260508195519 18 280 6.4 17.7 0.00 0.00 0.00 45 1011.1
20260508195018 18 212 8.0 17.7 0.00 0.00 0.00 44 1011.1
20260508194535 19 228 8.0 29.0 0.00 0.00 0.00 44 1011.0
20260508194018 19 238 9.7 29.0 0.00 0.00 0.00 43 1011.0
20260508193518 19 200 11.3 22.5 0.00 0.00 0.00 41 1011.0
20260508193037 20 215 6.4 17.7 0.00 0.00 0.00 43 1011.1
20260508192518 20 277 3.2 25.7 0.00 0.00 0.00 43 1011.1
20260508192022 20 201 4.8 29.0 0.00 0.00 0.00 43 1011.2
20260508191540 20 167 12.9 29.0 0.00 0.00 0.00 41 1011.3
20260508191019 20 259 6.4 29.0 0.00 0.00 0.00 45 1011.4
20260508190519 20 271 11.3 29.0 0.00 0.00 0.00 44 1011.4
20260508190044 20 159 12.9 32.2 0.00 0.00 0.00 42 1011.5
20260508185520 20 243 14.5 35.4 0.00 0.00 0.00 42 1011.5
20260508185019 20 210 12.9 35.4 0.00 0.00 0.00 43 1011.7
20260508184535 21 211 9.7 30.6 0.00 0.00 0.00 42 1011.7
20260508184018 20 238 9.7 30.6 0.00 0.00 0.00 44 1011.8
20260508183518 20 193 8.0 27.4 0.00 0.00 0.00 47 1011.8
20260508183038 20 221 11.3 30.6 0.00 0.00 0.00 47 1011.8
20260508182519 19 198 11.3 30.6 0.00 0.00 0.00 46 1011.9
20260508182018 19 187 9.7 24.1 0.00 0.00 0.00 46 1011.9
20260508181532 18 219 12.9 24.1 0.00 0.00 0.00 47 1012.1
20260508181022 18 258 9.7 25.7 0.00 0.00 0.00 47 1012.1
20260508180519 18 221 6.4 25.7 0.00 0.00 0.00 49 1012.3
20260508180035 18 250 8.0 25.7 0.00 0.00 0.00 49 1012.5
20260508175523 18 164 6.4 24.1 0.00 0.00 0.00 49 1012.5
20260508175018 18 190 9.7 29.0 0.00 0.00 0.00 48 1012.6
20260508174555 18 142 9.7 29.0 0.00 0.00 0.00 48 1012.7
20260508174022 18 221 11.3 27.4 0.00 0.00 0.00 48 1012.5
20260508173519 18 212 6.4 20.9 0.00 0.00 0.00 48 1012.7
20260508173035 18 257 9.7 20.9 0.00 0.00 0.00 47 1012.8
20260508172519 18 255 8.0 20.9 0.00 0.00 0.00 47 1013.1
20260508172019 18 196 8.0 20.9 0.00 0.00 0.00 47 1013.1
20260508171536 18 200 6.4 27.4 0.00 0.00 0.00 45 1013.1
20260508171018 19 253 14.5 27.4 0.00 0.00 0.00 46 1013.2
20260508170518 19 281 9.7 27.4 0.00 0.00 0.00 46 1013.2
20260508170037 19 9 6.4 27.4 0.00 0.00 0.00 48 1013.2
20260508165519 19 266 11.3 27.4 0.00 0.00 0.00 46 1013.4
20260508165018 19 193 12.9 30.6 0.00 0.00 0.00 46 1013.5
20260508164541 19 219 8.0 30.6 0.00 0.00 0.00 50 1013.6
20260508164019 19 271 11.3 30.6 0.00 0.00 0.00 50 1013.6
20260508163519 18 225 9.7 27.4 0.00 0.00 0.00 50 1013.7
20260508163105 18 238 6.4 25.7 0.00 0.00 0.00 50 1013.7
20260508162519 18 229 6.4 33.8 0.00 0.00 0.00 50 1013.8
20260508162019 18 267 16.1 33.8 0.00 0.00 0.00 49 1013.9
20260508161537 18 195 12.9 32.2 0.00 0.00 0.00 49 1013.8
20260508161019 18 200 11.3 25.7 0.00 0.00 0.00 50 1013.9
20260508160523 18 101 11.3 25.7 0.00 0.00 0.00 50 1014.1
20260508160036 18 201 14.5 27.4 0.00 0.00 0.00 50 1014.1
20260508155518 17 250 12.9 27.4 0.00 0.00 0.00 50 1014.4
20260508155018 17 180 11.3 29.0 0.00 0.00 0.00 52 1014.2
20260508154535 17 169 9.7 29.0 0.00 0.00 0.00 52 1014.3
20260508154018 17 243 9.7 27.4 0.00 0.00 0.00 52 1014.4
20260508153519 17 207 12.9 27.4 0.00 0.00 0.00 52 1014.4
20260508153035 17 241 8.0 32.2 0.00 0.00 0.00 54 1014.4
20260508152520 17 210 9.7 32.2 0.00 0.00 0.00 51 1014.5
20260508152019 17 282 9.7 32.2 0.00 0.00 0.00 51 1014.6
20260508151540 17 215 12.9 32.2 0.00 0.00 0.00 53 1014.4
20260508151025 16 9 9.7 29.0 0.00 0.00 0.00 54 1014.6
20260508150522 16 239 11.3 29.0 0.00 0.00 0.00 52 1014.5
20260508150037 16 209 9.7 27.4 0.00 0.00 0.00 52 1014.5
20260508145520 16 221 11.3 24.1 0.00 0.00 0.00 52 1014.5
20260508145017 16 239 9.7 22.5 0.00 0.00 0.00 53 1014.6
20260508144538 16 219 4.8 19.3 0.00 0.00 0.00 58 1014.6
20260508144020 15 93 8.0 19.3 0.00 0.00 0.00 54 1014.7
20260508143519 15 210 8.0 25.7 0.00 0.00 0.00 54 1014.8
20260508143037 15 236 8.0 25.7 0.00 0.00 0.00 54 1014.9
20260508142518 15 219 8.0 22.5 0.00 0.00 0.00 54 1014.9
20260508142019 15 281 6.4 22.5 0.00 0.00 0.00 54 1014.9
20260508141538 15 254 4.8 22.5 0.00 0.00 0.00 54 1015.1
20260508141019 15 266 6.4 25.7 0.00 0.00 0.00 54 1015.0
20260508140519 15 133 8.0 25.7 0.00 0.00 0.00 55 1015.0
20260508140037 15 253 11.3 22.5 0.00 0.00 0.00 53 1014.9
20260508135519 14 280 8.0 27.4 0.00 0.00 0.00 54 1015.0
20260508135018 13 189 6.4 27.4 0.00 0.00 0.00 54 1015.0
20260508134539 13 241 12.9 25.7 0.00 0.00 0.00 55 1015.0
20260508134018 13 238 12.9 27.4 0.00 0.00 0.00 56 1015.0
20260508133523 13 219 11.3 27.4 0.00 0.00 0.00 59 1015.0
20260508133044 12 221 6.4 17.7 0.00 0.00 0.00 59 1015.0
20260508132518 12 198 3.2 19.3 0.00 0.00 0.00 61 1015.1
20260508132020 12 259 8.0 19.3 0.00 0.00 0.00 61 1015.0
20260508131532 12 196 8.0 17.7 0.00 0.00 0.00 61 1014.9
20260508131019 12 221 6.4 19.3 0.00 0.00 0.00 61 1015.0
20260508130520 12 190 8.0 19.3 0.00 0.00 0.00 62 1014.9
20260508130051 11 208 4.8 17.7 0.00 0.00 0.00 65 1014.9
20260508125519 11 203 6.4 16.1 0.00 0.00 0.00 66 1015.0
20260508125019 11 169 8.0 16.1 0.00 0.00 0.00 67 1015.0
20260508124536 11 234 6.4 14.5 0.00 0.00 0.00 68 1015.0
20260508124019 10 250 4.8 19.3 0.00 0.00 0.00 67 1015.0
20260508123519 10 164 6.4 19.3 0.00 0.00 0.00 69 1015.0
20260508123038 10 158 6.4 14.5 0.00 0.00 0.00 72 1014.9
20260508122518 9 187 4.8 11.3 0.00 0.00 0.00 73 1015.0
20260508122018 9 178 4.8 11.3 0.00 0.00 0.00 74 1015.0
20260508121536 8 142 4.8 11.3 0.00 0.00 0.00 74 1015.0
20260508121019 8 178 4.8 11.3 0.00 0.00 0.00 73 1015.0
20260508120519 8 165 4.8 9.7 0.00 0.00 0.00 73 1015.0
20260508120042 8 232 4.8 11.3 0.00 0.00 0.00 73 1014.9
20260508115519 8 196 4.8 14.5 0.00 0.00 0.00 73 1014.9
20260508115018 8 208 4.8 14.5 0.00 0.00 0.00 73 1014.7
20260508114537 8 189 4.8 12.9 0.00 0.00 0.00 73 1014.7
20260508114023 8 182 6.4 12.9 0.00 0.00 0.00 73 1014.6
20260508113545 8 182 6.4 11.3 0.00 0.00 0.00 73 1014.5
20260508113044 8 221 4.8 9.7 0.00 0.00 0.00 73 1014.7
20260508112518 8 178 4.8 11.3 0.00 0.00 0.00 72 1014.6
20260508112019 8 178 4.8 11.3 0.00 0.00 0.00 72 1014.6
20260508111536 8 216 4.8 11.3 0.00 0.00 0.00 71 1014.6
20260508111019 8 172 4.8 12.9 0.00 0.00 0.00 71 1014.5
20260508110519 8 189 6.4 12.9 0.00 0.00 0.00 71 1014.5
20260508110045 8 219 6.4 14.5 0.00 0.00 0.00 71 1014.4
20260508105519 8 158 6.4 14.5 0.00 0.00 0.00 71 1014.3
20260508105019 8 205 8.0 14.5 0.00 0.00 0.00 71 1014.3
20260508104536 8 187 6.4 14.5 0.00 0.00 0.00 71 1014.2
20260508104018 8 178 6.4 14.5 0.00 0.00 0.00 71 1014.3
20260508103519 8 213 6.4 14.5 0.00 0.00 0.00 72 1014.4
20260508103038 8 153 6.4 14.5 0.00 0.00 0.00 72 1014.3
20260508102518 7 175 4.8 14.5 0.00 0.00 0.00 73 1014.4
20260508102019 7 221 4.8 14.5 0.00 0.00 0.00 73 1014.4
20260508101548 7 191 4.8 14.5 0.00 0.00 0.00 73 1014.5
20260508101019 7 175 4.8 11.3 0.00 0.00 0.00 74 1014.4
20260508100519 7 193 4.8 11.3 0.00 0.00 0.00 74 1014.4
20260508100039 7 193 4.8 12.9 0.00 0.00 0.00 75 1014.4
20260508095519 7 200 4.8 12.9 0.00 0.00 0.00 75 1014.5
20260508095019 7 184 4.8 14.5 0.00 0.00 0.00 76 1014.5
20260508094549 6 189 4.8 14.5 0.00 0.00 0.00 76 1014.5
20260508094018 6 155 4.8 9.7 0.00 0.00 0.00 76 1014.6
20260508093519 6 183 4.8 8.0 0.00 0.00 0.00 76 1014.6
20260508093051 6 193 4.8 8.0 0.00 0.00 0.00 77 1014.6
20260508092518 6 205 3.2 8.0 0.00 0.00 0.00 77 1014.7
20260508092020 6 191 1.6 8.0 0.00 0.00 0.00 77 1014.6
20260508091540 6 198 3.2 8.0 0.00 0.00 0.00 77 1014.6
20260508091019 6 146 3.2 8.0 0.00 0.00 0.00 78 1014.6
20260508090519 6 185 3.2 8.0 0.00 0.00 0.00 78 1014.5
20260508090053 6 146 1.6 8.0 0.00 0.00 0.00 79 1014.7
20260508085518 6 239 1.6 8.0 0.00 0.00 0.00 78 1014.6
20260508085018 6 146 1.6 8.0 0.00 0.00 0.00 78 1014.4
20260508084536 6 167 3.2 8.0 0.00 0.00 0.00 77 1014.5
20260508084018 6 158 3.2 8.0 0.00 0.00 0.00 76 1014.4
20260508083519 6 165 3.2 8.0 0.00 0.00 0.00 75 1014.6
20260508083036 6 171 1.6 6.4 0.00 0.00 0.00 73 1014.6
20260508082518 6 178 1.6 4.8 0.00 0.00 0.00 73 1014.5
20260508082019 6 146 1.6 6.4 0.00 0.00 0.00 72 1014.5
20260508081538 6 178 1.6 6.4 0.00 0.00 0.00 72 1014.4
20260508081019 6 193 3.2 8.0 0.00 0.00 0.00 72 1014.3
20260508080519 7 169 3.2 8.0 0.00 0.00 0.00 71 1014.3
20260508080040 7 178 4.8 9.7 0.00 0.00 0.00 71 1014.3
20260508075519 7 186 3.2 9.7 0.00 0.00 0.00 70 1014.3
20260508075023 7 186 4.8 8.0 0.00 0.00 0.00 69 1014.4
20260508074540 7 195 3.2 8.0 0.00 0.00 0.00 69 1014.3
20260508074018 7 201 3.2 8.0 0.00 0.00 0.00 68 1014.3
20260508073519 7 178 3.2 8.0 0.00 0.00 0.00 68 1014.2
20260508073036 7 203 4.8 8.0 0.00 0.00 0.00 68 1014.2
20260508072519 7 172 3.2 9.7 0.00 0.00 0.00 68 1014.3
20260508072019 7 193 3.2 9.7 0.00 0.00 0.00 67 1014.4
20260508071537 7 178 3.2 9.7 0.00 0.00 0.00 67 1014.4
20260508071019 7 232 3.2 9.7 0.00 0.00 0.00 67 1014.5
20260508070519 8 196 4.8 9.7 0.00 0.00 0.00 67 1014.4
20260508070039 8 225 4.8 9.7 0.00 0.00 0.00 66 1014.5
20260508065519 8 205 4.8 11.3 0.00 0.00 0.00 66 1014.5
20260508065018 8 171 4.8 11.3 0.00 0.00 0.00 66 1014.5
20260508064536 8 178 3.2 11.3 0.00 0.00 0.00 66 1014.7
20260508064019 8 184 6.4 11.3 0.00 0.00 0.00 67 1014.8
20260508063521 8 221 4.8 14.5 0.00 0.00 0.00 67 1014.9
20260508063036 8 213 6.4 14.5 0.00 0.00 0.00 67 1014.9
20260508062518 7 261 4.8 9.7 0.00 0.00 0.00 67 1015.0
20260508062019 7 217 4.8 11.3 0.00 0.00 0.00 67 1014.9
20260508061536 7 178 4.8 11.3 0.00 0.00 0.00 67 1015.0
20260508061018 7 186 4.8 9.7 0.00 0.00 0.00 67 1015.1
20260508060522 8 190 4.8 9.7 0.00 0.00 0.00 66 1014.9
20260508060042 8 219 3.2 11.3 0.00 0.00 0.00 66 1014.9
20260508055519 8 193 4.8 11.3 0.00 0.00 0.00 65 1014.9
20260508055023 8 205 3.2 8.0 0.00 0.00 0.00 65 1015.0
20260508054544 8 187 1.6 8.0 0.00 0.00 0.00 65 1015.1
20260508054020 8 200 1.6 8.0 0.00 0.00 0.00 64 1015.0
20260508053518 8 205 1.6 8.0 0.00 0.00 0.00 64 1015.2
20260508053037 8 165 1.6 9.7 0.00 0.00 0.00 64 1015.1
20260508052517 8 219 1.6 9.7 0.00 0.00 0.00 63 1015.1
20260508052018 8 0 3.2 9.7 0.00 0.00 0.00 63 1015.0
20260508051536 8 195 3.2 11.3 0.00 0.00 0.00 63 1015.0
20260508051022 8 190 3.2 11.3 0.00 0.00 0.00 63 1015.0
20260508050519 8 51 3.2 9.7 0.00 0.00 0.00 63 1015.0
20260508050041 8 196 3.2 9.7 0.00 0.00 0.00 63 1015.0
20260508045519 8 188 3.2 9.7 0.00 0.00 0.00 64 1015.0
20260508045023 8 169 4.8 12.9 0.00 0.00 0.00 64 1015.1
20260508044546 8 196 4.8 12.9 0.00 0.00 0.00 65 1015.0
20260508044021 8 211 4.8 9.7 0.00 0.00 0.00 65 1015.0
20260508043522 8 194 4.8 11.3 0.00 0.00 0.00 66 1014.9
20260508043037 8 165 4.8 11.3 0.00 0.00 0.00 66 1014.9
20260508042522 7 230 3.2 11.3 0.00 0.00 0.00 66 1014.9
20260508042022 7 164 4.8 11.3 0.00 0.00 0.00 67 1015.0
20260508041547 7 165 4.8 11.3 0.00 0.00 0.00 67 1015.0
20260508041021 7 178 4.8 11.3 0.00 0.00 0.00 67 1015.0
20260508040522 7 189 3.2 9.7 0.00 0.00 0.00 68 1014.8
20260508040045 7 158 4.8 9.7 0.00 0.00 0.00 68 1014.8
20260508035519 7 194 3.2 11.3 0.00 0.00 0.00 69 1014.8
20260508035021 7 178 4.8 11.3 0.00 0.00 0.00 70 1014.8
20260508034540 7 219 4.8 11.3 0.00 0.00 0.00 70 1014.8
20260508034019 7 209 4.8 11.3 0.00 0.00 0.00 71 1014.9
20260508033518 7 205 3.2 8.0 0.00 0.00 0.00 70 1014.9
20260508033039 7 178 3.2 9.7 0.00 0.00 0.00 70 1014.7
20260508032522 7 198 3.2 9.7 0.00 0.00 0.00 70 1014.9
20260508032018 7 196 3.2 8.0 0.00 0.00 0.00 70 1014.9
20260508031536 7 165 3.2 8.0 0.00 0.00 0.00 70 1014.9
20260508031019 7 195 3.2 8.0 0.00 0.00 0.00 70 1014.9
20260508030519 7 188 3.2 8.0 0.00 0.00 0.00 70 1014.8
20260508030039 7 172 3.2 11.3 0.00 0.00 0.00 71 1014.7
20260508025519 7 169 3.2 11.3 0.00 0.00 0.00 72 1014.5
20260508025019 7 157 4.8 11.3 0.00 0.00 0.00 74 1014.6
20260508024540 7 201 4.8 9.7 0.00 0.00 0.00 75 1014.7
20260508024019 7 165 4.8 8.0 0.00 0.00 0.00 75 1014.7
20260508023519 7 187 3.2 8.0 0.00 0.00 0.00 75 1014.7
20260508023042 7 188 1.6 8.0 0.00 0.00 0.00 75 1014.9
20260508022519 7 209 3.2 8.0 0.00 0.00 0.00 75 1014.7
20260508022019 7 175 3.2 8.0 0.00 0.00 0.00 75 1014.6
20260508021537 7 162 3.2 8.0 0.00 0.00 0.00 75 1014.6
20260508021018 7 153 3.2 6.4 0.00 0.00 0.00 74 1014.6
20260508020521 7 171 1.6 4.8 0.00 0.00 0.00 73 1014.7
20260508020035 7 158 1.6 4.8 0.00 0.00 0.00 73 1014.7
20260508015518 8 0 0.0 6.4 0.00 0.00 0.00 74 1014.7
20260508015018 8 169 1.6 6.4 0.00 0.00 0.00 72 1014.5
20260508014536 8 149 1.6 6.4 0.00 0.00 0.00 70 1014.6
20260508014020 8 178 1.6 4.8 0.00 0.00 0.00 69 1014.7
20260508013519 8 178 1.6 4.8 0.00 0.00 0.00 68 1014.6
20260508013036 8 178 1.6 3.2 0.00 0.00 0.00 66 1014.6
20260508012519 9 169 1.6 6.4 0.00 0.00 0.00 65 1014.6
20260508012022 9 178 1.6 6.4 0.00 0.00 0.00 63 1014.6
20260508011537 10 169 1.6 3.2 0.00 0.00 0.00 62 1014.5
20260508011019 10 137 0.0 1.6 0.00 0.00 0.00 61 1014.6
20260508010519 10 0 0.0 3.2 0.00 0.00 0.00 61 1014.5
20260508010041 10 0 0.0 3.2 0.00 0.00 0.00 60 1014.5
20260508005518 11 178 1.6 3.2 0.00 0.00 0.00 60 1014.6
20260508005019 11 178 1.6 3.2 0.00 0.00 0.00 58 1014.5
20260508004535 11 0 0.0 3.2 0.00 0.00 0.00 57 1014.5
20260508004019 12 196 0.0 3.2 0.00 0.00 0.00 55 1014.5
20260508003521 12 0 0.0 3.2 0.00 0.00 0.00 53 1014.4
20260508003033 12 178 0.0 3.2 0.00 0.00 0.00 52 1014.4